Location: Cabeza Gorda
(40.0667°N, 4.9667°W)
Time: 18:49:48
(UTC+00:00)

Cosmos 2278 Rocket - Pass Details

Date: 15 January 2026
Orbit: 839 x 846 km, 71.0° (Epoch: 10 February)

Event Time Altitude Azimuth Distance (km) Brightness Sun altitude
Rises 06:36:23 0° 223° (SW) 3,379 5.1 -12.1°
Reaches altitude 10° 06:38:57 10° 231° (SW) 2,449 4.3 -11.6°
Maximum altitude 06:44:13 40° 300° (WNW) 1,220 2.6 -10.7°
Drops below altitude 10° 06:49:31 10° 9° (N) 2,466 4.5 -9.7°
Sets 06:52:08 0° 17° (NNE) 3,406 5.3 -9.2°
